{"data":{"norad_id":45147,"intl_designator":"2020-008S","name":"ONEWEB-0040","alt_names":[],"object_type":"PAYLOAD","status":"ACTIVE","operator":null,"country":"UK","launch_date":"2020-02-06","launch_site_code":"TYMSC","launch_vehicle":null,"mission":null,"orbit_class":"UNKNOWN","rcs_meters":null,"size_class":null,"mass_kg":null,"dimensions":null,"purposes":["comms"],"wikipedia_slug":null,"has_3d_model":false,"image_url":null,"decayed_at":null,"tle_current":{"epoch":"2026-05-25T03:24:51.873984Z","epoch_age_seconds":62108,"freshness":"FRESH","line1":"1 45147U 20008S   26145.14226706  .00000113  00000+0  28675-3 0  9992","line2":"2 45147  87.8854  40.8668 0001826  75.4092 284.7238 13.10377028304844","mean_motion":13.10377028,"eccentricity":0.0001826,"inclination_deg":87.8854,"raan_deg":40.8668,"arg_perigee_deg":75.4092,"mean_anomaly_deg":284.7238,"bstar":0.00028675,"rev_number":30484,"period_min":109.8920363552,"perigee_km":1220.313138553,"apogee_km":1223.0885993428,"semimajor_km":7599.8378689479,"source":"CELESTRAK","updated_at":"2026-05-25T13:38:22.336346Z"}}}